Regional Weather Roundup
Issued by NWS

Home | Current Version | Previous Version | Text Only | Print | Product List | Glossary Off
Versions: 1 2 3 4 5 6 7 8 9 10 11 12 13 14 15 16 17 18 19 20 21 22 23 24 25 26 27 28 29 30 31 32 33 34 35 36 37 38 39 40 41 42 43 44 45 46 47 48 49 50

000
ASUS43 KLOT 290400
RWRIL

ILLINOIS REGIONAL WEATHER ROUNDUP
NATIONAL WEATHER SERVICE CHICAGO/ROMEOVILLE IL
1100 PM CDT FRI AUG 28 2015

NOTE: "FAIR" INDICATES FEW OR NO CLOUDS BELOW 12,000 FEET WITH NO
SIGNIFICANT WEATHER AND/OR OBSTRUCTIONS TO VISIBILITY.

* THESE STATIONS ARE NOT UNDER NWS QUALITY CONTROL. THEY ALSO MAY NOT
  REPORT WEATHER SUCH AS PRECIPITATION OR FOG.

ILZ001-002-007-009-015-016-024-290500-
NORTHWEST ILLINOIS

CITY           SKY/WX    TMP DP  RH WIND       PRES   REMARKS
MOLINE         LGT RAIN  67  64  90 SE9       30.01S
STERLING*      CLOUDY    66  63  88 N3        30.04R
$$

ILZ003-004-008-010-011-017-018-290500-
NORTH CENTRAL ILLINOIS

CITY           SKY/WX    TMP DP  RH WIND       PRES   REMARKS
ROCKFORD       LGT RAIN  66  61  84 E13       30.08R
FREEPORT*      RAIN      63  62  96 E5        30.08R
$$

ILZ005-006-012>014-019>023-290500-
NORTHEAST ILLINOIS

CITY           SKY/WX    TMP DP  RH WIND       PRES   REMARKS
CHICAGO-OHARE  CLOUDY    70  63  78 E6        30.07S
CHICAGO-MIDWAY CLOUDY    72  63  73 E5        30.07F
AURORA         CLOUDY    68  62  81 E5        30.07R
LANSING*       CLOUDY    68  60  76 SE6       30.08S
WAUKEGAN       CLOUDY    65  63  93 NE6       30.09R FOG
DUPAGE AIRPORT CLOUDY    68  60  75 E7        30.07R
WHEELING       CLOUDY    68  63  84 E6        30.09S
ROMEOVILLE*    CLOUDY    68  60  76 E6        30.07S
NORTHERLY ISL    N/A     67  64  90 E7          N/A
$$

LMZ740>746-290500-
SOUTHERN LAKE MICHIGAN

STATION/POSITION SKY/WX   TEMP    WIND        PRES    VSBY  WAVE
                          AIR SEA DIR/SP/G                  HT/PER
                          (F)     (DEG/KT/KT) (MB)    (MI)  (FT/S)
SOUTHERN BUOY              68 69   80/  8/ 10 1019.2S         0
WILMETTE HARBOR            63 57  250/  4/  6   N/A           1
HARRISON CRIB              70      90/ 14/ 15   N/A
BURNHAM HARBOR             67      80/  4/  4   N/A
BURNS HARBOR               74     130/  8/ 12 1019.3S
MICHIGAN CITY              71      90/  5/  6   N/A
MICHIGAN CITY 6N           71 71  120/  6/  8   N/A           0
ST. JOSEPH                 71 71  140/ 10/ 12   N/A           1
$$

ILZ025>027-034>036-040-047-049-050-058-095>099-290500-
WEST-CENTRAL ILLINOIS

CITY           SKY/WX    TMP DP  RH WIND       PRES   REMARKS
QUINCY         CLOUDY    71  63  75 S7        29.99S
$$

ILZ028>032-037-038-041>044-048-051>054-059>061-290500-
CENTRAL ILLINOIS

CITY           SKY/WX    TMP DP  RH WIND       PRES   REMARKS
DECATUR        MOCLDY    69  57  65 SE8       30.04F
PEORIA         CLOUDY    72  59  63 SE5       30.03R
SPRINGFIELD    MOCLDY    72  61  68 S7        30.03R
TAYLORVILLE    NOT AVBL
$$

ILZ033-039-045-046-055>057-062-063-290500-
EAST-CENTRAL ILLINOIS

CITY           SKY/WX    TMP DP  RH WIND       PRES   REMARKS
CHAMPAIGN      PTCLDY    64  60  87 SE6       30.06S
MATTOON        CLOUDY    67  58  72 SE6       30.05S HAZE
$$

ILZ079-100>102-290500-
SOUTHWEST ILLINOIS

CITY           SKY/WX    TMP DP  RH WIND       PRES   REMARKS
ALTON          CLOUDY    67  62  84 SE6       30.03S
BELLEVILLE     CLOUDY    69  65  85 CALM      30.02R
CAHOKIA*       CLOUDY    71  63  75 SE5       30.02R
SPARTA*        CLOUDY    70  64  80 SE3       30.04S
$$

ILZ064>066-069>071-074>076-080>082-084>086-088>090-092>094-290500-
SOUTH-CENTRAL ILLINOIS

CITY           SKY/WX    TMP DP  RH WIND       PRES   REMARKS
CARBONDALE     PTCLDY    69  64  84 SE6       30.05S
MARION         PTCLDY    72  66  83 SE5       30.06S
MT. VERNON     MOCLDY    72  61  68 SE5       30.06S
$$

ILZ067-068-072-073-078-083-087-091-290500-
SOUTHEAST ILLINOIS

CITY           SKY/WX    TMP DP  RH WIND       PRES   REMARKS
LAWRENCEVILLE  PTCLDY    66  61  84 E5        30.07F
ROBINSON*      PTCLDY    59  58  94 CALM      30.08S
$$

ABBREVIATIONS USED IN REMARKS
   TC - TEMPERATURE IN CELSIUS
  WCI - WIND CHILL INDEX
   HX - HEAT INDEX
  VSB - VISIBILITY
$$



USA.gov is the U.S. government's official web portal to all federal, state and local government web resources and services.